This demonstration page uses our WeatherBlox Daily Observations layout. Learn more.

39.92423, -83.80882

Hourly Observations for September 2, 2020

Temp ( °F °C ) Dew Point ( °F °C ) Humidity (%) Winds ( mph kmh ) Pressure ( in mb ) Visibility ( mi km ) Precip ( " mm )
12:20 am 00:20 Mostly Cloudy 73 23 73 23 100 100 Calm 29.85 1011 10 16.0934 0 0
12:56 am 00:56 Cloudy 74 23.3 74 23.3 100 100 Calm 29.85 1011 10 16.0934 0 0
1:08 am 01:08 Cloudy 73 23 73 23 100 100 S 3 6 29.83 1010 10 16.0934 0 0
1:56 am 01:56 Partly Cloudy 72 22.2 72 22.2 100 100 Calm 29.84 1011 10 16.0934 0 0
2:56 am 02:56 Cloudy 73 22.8 73 22.8 100 100 SSW 3 6 29.82 1010 10 16.0934 0 0
3:56 am 03:56 Mostly Cloudy 72 22.2 72 22.2 100 100 S 3 6 29.81 1009 10 16.0934 0 0
4:56 am 04:56 Cloudy with Light Rain 72 22.2 72 22.2 100 100 SSW 5 7 29.8 1009 10 16.0934 0.001 0.001
5:24 am 05:24 Cloudy with Light Rain 72 22 N/A N/A SSW 6 9 29.78 1009 10 16.0934 0.001 0.001
5:40 am 05:40 Cloudy with Light Rain 72 22 72 22 100 100 SSW 6 9 29.78 1009 6 9.65604 0.03 0.762
5:52 am 05:52 Cloudy with Light Rain 72 22 72 22 100 100 SSW 6 9 29.78 1009 9 14.48406 0.03 0.762
5:56 am 05:56 Cloudy with Light Rain 72 22.2 72 22.2 100 100 SSW 7 11 29.8 1009 8 12.87472 0.04 1.016
6:03 am 06:03 Cloudy with Rain 72 22 72 22 100 100 SSW 6 9 29.78 1009 6 9.65604 0.01 0.254
6:14 am 06:14 Cloudy with Light Rain 72 22 72 22 100 100 S 5 7 29.78 1009 7 11.26538 0.02 0.508
6:42 am 06:42 Cloudy with Light Rain 72 22 72 22 100 100 S 5 7 29.78 1009 8 12.87472 0.02 0.508
6:49 am 06:49 Cloudy with Light Rain 72 22 72 22 100 100 SSW 6 9 29.78 1009 9 14.48406 0.03 0.762
6:56 am 06:56 Cloudy 72 22.2 72 22.2 100 100 SSW 8 13 29.8 1009 9 14.48406 0.03 0.762
7:45 am 07:45 Cloudy with Mist and Fog 72 22 72 22 100 100 SW 8 13 29.79 1009 5 8.0467 0.001 0.001
7:56 am 07:56 Cloudy with Mist and Fog 72 22.2 72 22.2 100 100 SW 7 11 29.8 1009 5 8.0467 0.001 0.001
8:28 am 08:28 Cloudy with Light Rain 72 22 72 22 100 100 SW 8 13 29.79 1009 6 9.65604 0.001 0.001
8:56 am 08:56 Cloudy 73 22.8 73 22.8 100 100 SW 5 7 29.81 1009 7 11.26538 0.001 0.001
9:40 am 09:40 Cloudy with Light Rain 73 23 73 23 100 100 WSW 8 13 29.8 1009 4 6.43736 0.001 0.001
9:56 am 09:56 Cloudy with Light Rain 73 22.8 73 22.8 100 100 WSW 9 15 29.82 1010 5 8.0467 0.001 0.001
10:00 am 10:00 Cloudy with Light Rain 72 22 72 22 100 100 W 10 17 29.8 1009 5 8.0467 0.001 0.001
10:08 am 10:08 Cloudy with Light Rain 73 23 73 23 100 100 W 9 15 29.8 1009 10 16.0934 0.001 0.001
10:23 am 10:23 Cloudy 73 23 73 23 100 100 WSW 8 13 29.8 1009 10 16.0934 0.001 0.001
10:52 am 10:52 Cloudy 75 24 75 24 100 100 W 13 20 29.8 1009 10 16.0934 0.001 0.001
10:56 am 10:56 Cloudy 76 24.4 74 23.3 94 94 W 12 19 29.82 1010 10 16.0934 0.001 0.001
11:03 am 11:03 Cloudy 77 25 75 24 94 94 WSW 13 20 29.79 1009 10 16.0934 0 0
11:36 am 11:36 Cloudy 77 25 73 23 89 89 WSW 14 22 29.8 1009 10 16.0934 0 0
11:56 am 11:56 Cloudy 76 24.4 73 22.8 91 91 W 12 19 29.83 1010 10 16.0934 0 0
12:56 pm 12:56 Cloudy 79 26.1 73 22.8 82 82 W 17 28 29.84 1010 10 16.0934 0 0
1:07 pm 13:07 Cloudy 81 27 72 22 74 74 WSW 14 22 29.81 1009 10 16.0934 0 0
1:17 pm 13:17 Cloudy 81 27 73 23 79 79 WSW 10 17 29.81 1009 10 16.0934 0 0
1:56 pm 13:56 Cloudy 80 26.7 72 22.2 76 76 W 9 15 29.84 1011 10 16.0934 0 0
2:03 pm 14:03 Mostly Cloudy 82 28 73 23 74 74 W 10 17 29.81 1010 10 16.0934 0 0
2:10 pm 14:10 Cloudy 82 28 72 22 70 70 W 13 20 29.81 1010 10 16.0934 0 0
2:56 pm 14:56 Cloudy 80 26.7 71 21.7 74 74 WNW 15 24 29.85 1011 10 16.0934 0 0
3:56 pm 15:56 Mostly Cloudy 81 27.2 72 22.2 74 74 W 12 19 29.85 1011 10 16.0934 0 0
4:03 pm 16:03 Cloudy 81 27 72 22 74 74 W 12 19 29.83 1010 10 16.0934 0 0
4:23 pm 16:23 Cloudy 79 26 72 22 79 79 W 13 20 29.82 1010 10 16.0934 0 0
4:56 pm 16:56 Mostly Cloudy 78 25.6 71 21.7 79 79 W 12 19 29.85 1011 10 16.0934 0 0
5:06 pm 17:06 Mostly Cloudy 79 26 72 22 79 79 W 7 11 29.83 1010 10 16.0934 0 0
5:30 pm 17:30 Cloudy 79 26 72 22 79 79 W 8 13 29.83 1010 10 16.0934 0 0
5:56 pm 17:56 Cloudy 77 25 71 21.7 82 82 W 8 13 29.86 1011 10 16.0934 0 0
6:56 pm 18:56 Mostly Sunny 76 24.4 70 21.1 82 82 W 8 13 29.87 1011 10 16.0934 0 0
7:56 pm 19:56 Sunny 74 23.3 71 21.7 91 91 W 5 7 29.88 1012 10 16.0934 0 0
8:56 pm 20:56 Clear 70 21.1 70 21.1 100 100 WNW 5 7 29.88 1012 10 16.0934 0 0
9:56 pm 21:56 Clear 69 20.6 69 20.6 100 100 SW 3 6 29.91 1013 10 16.0934 0 0
10:56 pm 22:56 Clear 66 18.9 66 18.9 100 100 Calm 29.91 1013 8 12.87472 0 0
11:56 pm 23:56 Clear 66 18.9 66 18.9 100 100 Calm 29.92 1013 7 11.26538 0 0

Powered by AerisWeather